Regional Weather Roundup
Issued by NWS Goodland, KS

Home | Current Version | Previous Version | Text Only | Print | Product List | Glossary Off
Versions: 1 2 3 4 5 6 7 8 9 10 11 12 13 14 15 16 17 18 19 20 21 22 23 24 25 26 27 28 29 30 31 32 33 34 35 36 37 38 39 40 41 42 43 44 45 46 47 48 49 50

000
ASUS43 KGLD 031708
RWRGLD

GOODLAND FORECAST AREA HOURLY WEATHER ROUNDUP
NATIONAL WEATHER SERVICE GOODLAND KS
1100 AM MDT FRI JUL 03 2015

...OFFICIAL OBSERVATIONS...

CITY           SKY/WX    TMP DP  RH WIND       PRES   REMARKS
GOODLAND KS    SUNNY     80  55  42 VRB3      30.10F
HILL CITY KS   MOSUNNY   75  63  66 VRB7      30.07F
IMPERIAL NEB   MOSUNNY   79  57  46 N5        30.09S
MCCOOK NEB     SUNNY     77  63  61 E9        30.06F
AKRON CO       MOSUNNY   73  58  59 E3        30.17S
BURLINGTON CO  MOSUNNY   77  51  40 S3        30.14S
LIMON CO       SUNNY     74  56  53 VRB6      30.21S
$$

...UNOFFICIAL OBSERVATIONS...

CITY           SKY/WX    TMP DP  RH WIND       PRES   REMARKS
COLBY KS       SUNNY     81  57  44 CALM      30.09S
GOVE KS          N/A     82  32  16 MISG        N/A
NORTON KS      PTSUNNY   73  57  56 N3        30.07S
SHARON SPRINGS   N/A     81  60  49 E5          N/A
YUMA CO          N/A     78  59  52 CALM        N/A
$$


USA.gov is the U.S. government's official web portal to all federal, state and local government web resources and services.